| time (UTC) | temp F | wind direction | speed knots | gust knots | rain 1hr in | rain 24hr in | rain mn in | humidity % | barometer mb |
| 20260905091504 | 78 | 175 | 0.9 | 2.6 | 0.00 | 0.01 | 0.00 | 92 | 997.2 |
| 20260905091003 | 78 | 203 | 0.9 | 2.6 | 0.00 | 0.01 | 0.00 | 92 | 997.2 |
| 20260905090003 | 78 | 148 | 0.9 | 6.1 | 0.00 | 0.01 | 0.00 | 91 | 997.2 |
| 20260905085503 | 78 | 157 | 0.9 | 2.6 | 0.00 | 0.01 | 0.00 | 91 | 997.3 |
| 20260905085003 | 78 | 213 | 1.7 | 2.6 | 0.00 | 0.01 | 0.00 | 91 | 997.1 |
| 20260905084503 | 78 | 158 | 0.9 | 2.6 | 0.00 | 0.01 | 0.00 | 91 | 997.1 |
| 20260905084003 | 78 | 169 | 1.7 | 5.2 | 0.00 | 0.01 | 0.00 | 91 | 997.5 |
| 20260905083502 | 78 | 170 | 2.6 | 5.2 | 0.00 | 0.01 | 0.00 | 90 | 997.3 |
| 20260905083003 | 78 | 175 | 1.7 | 2.6 | 0.00 | 0.01 | 0.00 | 90 | 997.4 |
| 20260905082003 | 78 | 197 | 1.7 | 5.2 | 0.00 | 0.01 | 0.00 | 90 | 997.3 |
| 20260905080503 | 79 | 163 | 3.5 | 6.1 | 0.00 | 0.01 | 0.00 | 90 | 997.3 |
| 20260905080003 | 79 | 174 | 2.6 | 6.1 | 0.00 | 0.01 | 0.00 | 89 | 997.4 |
| 20260905075503 | 79 | 214 | 2.6 | 5.2 | 0.00 | 0.01 | 0.00 | 89 | 997.4 |
| 20260905075003 | 79 | 173 | 3.5 | 5.2 | 0.00 | 0.01 | 0.00 | 89 | 997.5 |
| 20260905074503 | 79 | 240 | 2.6 | 4.3 | 0.00 | 0.01 | 0.00 | 89 | 997.7 |
| 20260905074003 | 79 | 174 | 1.7 | 6.1 | 0.00 | 0.01 | 0.00 | 88 | 997.4 |
| 20260905073503 | 79 | 199 | 2.6 | 6.1 | 0.00 | 0.01 | 0.00 | 88 | 997.7 |
| 20260905073003 | 79 | 239 | 2.6 | 5.2 | 0.00 | 0.01 | 0.00 | 88 | 997.5 |
| 20260905072503 | 79 | 170 | 2.6 | 5.2 | 0.00 | 0.01 | 0.00 | 87 | 997.8 |
| 20260905072003 | 79 | 133 | 1.7 | 2.6 | 0.00 | 0.01 | 0.00 | 87 | 997.6 |
| 20260905071504 | 80 | 161 | 2.6 | 5.2 | 0.00 | 0.01 | 0.00 | 87 | 997.4 |
| 20260905071003 | 80 | 195 | 2.6 | 2.6 | 0.00 | 0.01 | 0.00 | 86 | 997.8 |
| 20260905070503 | 80 | 206 | 4.3 | 7.8 | 0.00 | 0.01 | 0.00 | 86 | 997.6 |
| 20260905065502 | 80 | 183 | 2.6 | 4.3 | 0.00 | 0.01 | 0.00 | 85 | 997.8 |
| 20260905065003 | 80 | 190 | 2.6 | 4.3 | 0.00 | 0.01 | 0.00 | 85 | 997.8 |
| 20260905064503 | 80 | 177 | 3.5 | 6.1 | 0.00 | 0.01 | 0.00 | 84 | 997.9 |
| 20260905064003 | 80 | 169 | 4.3 | 6.1 | 0.00 | 0.01 | 0.00 | 84 | 997.9 |
| 20260905063503 | 80 | 181 | 4.3 | 6.1 | 0.00 | 0.01 | 0.00 | 83 | 997.8 |
| 20260905063003 | 80 | 177 | 2.6 | 6.1 | 0.00 | 0.01 | 0.00 | 83 | 997.7 |
| 20260905062503 | 80 | 193 | 3.5 | 5.2 | 0.00 | 0.01 | 0.00 | 83 | 997.8 |
| 20260905062003 | 80 | 148 | 2.6 | 7.0 | 0.00 | 0.01 | 0.00 | 82 | 998.0 |
| 20260905061503 | 80 | 214 | 6.1 | 7.0 | 0.00 | 0.01 | 0.00 | 82 | 997.7 |
| 20260905061003 | 80 | 178 | 2.6 | 5.2 | 0.00 | 0.01 | 0.00 | 81 | 997.9 |
| 20260905060003 | 80 | 138 | 2.6 | 5.2 | 0.00 | 0.01 | 0.00 | 80 | 997.9 |
| 20260905055003 | 80 | 193 | 3.5 | 6.1 | 0.00 | 0.01 | 0.00 | 80 | 997.9 |
| 20260905054503 | 80 | 167 | 4.3 | 6.1 | 0.00 | 0.01 | 0.00 | 79 | 998.1 |
| 20260905054003 | 80 | 136 | 1.7 | 7.8 | 0.00 | 0.01 | 0.00 | 79 | 998.1 |
| 20260905053503 | 81 | 183 | 2.6 | 5.2 | 0.00 | 0.01 | 0.00 | 79 | 997.8 |
| 20260905053003 | 81 | 201 | 4.3 | 8.7 | 0.00 | 0.01 | 0.00 | 78 | 997.8 |
| 20260905052503 | 81 | 187 | 2.6 | 7.0 | 0.00 | 0.01 | 0.00 | 78 | 998.0 |
| 20260905052003 | 81 | 219 | 4.3 | 7.0 | 0.00 | 0.01 | 0.00 | 78 | 998.1 |
| 20260905051003 | 81 | 178 | 5.2 | 7.8 | 0.00 | 0.01 | 0.00 | 77 | 998.0 |
| 20260905050503 | 81 | 206 | 3.5 | 5.2 | 0.00 | 0.01 | 0.00 | 77 | 997.8 |
| 20260905050003 | 81 | 175 | 1.7 | 4.3 | 0.00 | 0.01 | 0.00 | 77 | 998.1 |
| 20260905045503 | 81 | 182 | 2.6 | 5.2 | 0.00 | 0.01 | 0.01 | 77 | 998.2 |
| 20260905045003 | 81 | 180 | 2.6 | 5.2 | 0.00 | 0.01 | 0.01 | 77 | 998.2 |
| 20260905044503 | 81 | 137 | 1.7 | 7.0 | 0.00 | 0.01 | 0.01 | 76 | 998.2 |
| 20260905044003 | 81 | 188 | 2.6 | 4.3 | 0.00 | 0.01 | 0.01 | 76 | 998.0 |
| 20260905043004 | 82 | 158 | 2.6 | 5.2 | 0.00 | 0.01 | 0.01 | 75 | 998.0 |
| 20260905042503 | 82 | 184 | 2.6 | 5.2 | 0.00 | 0.01 | 0.01 | 75 | 997.9 |
| 20260905042003 | 82 | 142 | 1.7 | 6.1 | 0.00 | 0.01 | 0.01 | 75 | 998.0 |
| 20260905041503 | 82 | 191 | 1.7 | 5.2 | 0.00 | 0.01 | 0.01 | 74 | 997.9 |
| 20260905041003 | 82 | 168 | 1.7 | 4.3 | 0.00 | 0.01 | 0.01 | 74 | 998.0 |
| 20260905040503 | 82 | 155 | 2.6 | 6.1 | 0.00 | 0.01 | 0.01 | 74 | 998.0 |
| 20260905040003 | 82 | 194 | 2.6 | 5.2 | 0.00 | 0.01 | 0.01 | 74 | 997.9 |
| 20260905035003 | 82 | 158 | 2.6 | 4.3 | 0.00 | 0.01 | 0.01 | 73 | 997.7 |
| 20260905034503 | 82 | 151 | 1.7 | 4.3 | 0.00 | 0.01 | 0.01 | 73 | 997.9 |
| 20260905034003 | 82 | 152 | 1.7 | 6.1 | 0.00 | 0.01 | 0.01 | 73 | 997.9 |
| 20260905032503 | 82 | 133 | 1.7 | 5.2 | 0.00 | 0.01 | 0.01 | 74 | 997.9 |
| 20260905031503 | 83 | 172 | 1.7 | 4.3 | 0.00 | 0.01 | 0.01 | 74 | 997.8 |
| 20260905030503 | 83 | 142 | 0.9 | 2.6 | 0.00 | 0.01 | 0.01 | 74 | 997.5 |
| 20260905030003 | 83 | 164 | 2.6 | 4.3 | 0.00 | 0.01 | 0.01 | 74 | 997.6 |
| 20260905025503 | 83 | 192 | 2.6 | 4.3 | 0.00 | 0.01 | 0.01 | 74 | 997.7 |
| 20260905024503 | 83 | 150 | 2.6 | 4.3 | 0.00 | 0.01 | 0.01 | 74 | 997.5 |
| 20260905024003 | 83 | 141 | 1.7 | 2.6 | 0.00 | 0.01 | 0.01 | 73 | 997.5 |
| 20260905023503 | 83 | 160 | 1.7 | 5.2 | 0.00 | 0.01 | 0.01 | 73 | 997.4 |
| 20260905023004 | 83 | 179 | 2.6 | 4.3 | 0.00 | 0.01 | 0.01 | 73 | 997.4 |
| 20260905022503 | 83 | 168 | 1.7 | 4.3 | 0.00 | 0.01 | 0.01 | 73 | 997.3 |
| 20260905022003 | 83 | 171 | 2.6 | 4.3 | 0.00 | 0.01 | 0.01 | 73 | 997.2 |
| 20260905021503 | 83 | 132 | 1.7 | 4.3 | 0.00 | 0.01 | 0.01 | 73 | 997.2 |
| 20260905021002 | 83 | 174 | 1.7 | 4.3 | 0.00 | 0.01 | 0.01 | 74 | 997.3 |
| 20260905020502 | 83 | 140 | 1.7 | 4.3 | 0.00 | 0.01 | 0.01 | 75 | 997.2 |
| 20260905015503 | 83 | 163 | 2.6 | 5.2 | 0.00 | 0.01 | 0.01 | 75 | 997.1 |
| 20260905015003 | 84 | 153 | 1.7 | 4.3 | 0.00 | 0.01 | 0.01 | 74 | 997.1 |
| 20260905014503 | 84 | 142 | 1.7 | 5.2 | 0.00 | 0.01 | 0.01 | 74 | 997.0 |
| 20260905014003 | 84 | 140 | 1.7 | 5.2 | 0.00 | 0.01 | 0.01 | 74 | 996.8 |
| 20260905013503 | 84 | 139 | 0.9 | 5.2 | 0.00 | 0.01 | 0.01 | 74 | 996.8 |
| 20260905013003 | 84 | 139 | 1.7 | 4.3 | 0.00 | 0.01 | 0.01 | 73 | 996.8 |
| 20260905012503 | 84 | 182 | 2.6 | 4.3 | 0.00 | 0.01 | 0.01 | 73 | 996.7 |
| 20260905011502 | 85 | 147 | 1.7 | 6.1 | 0.00 | 0.01 | 0.01 | 72 | 996.8 |
| 20260905011003 | 85 | 158 | 1.7 | 5.2 | 0.00 | 0.01 | 0.01 | 71 | 996.5 |
| 20260905010503 | 85 | 149 | 1.7 | 5.2 | 0.00 | 0.01 | 0.01 | 71 | 996.6 |
| 20260905010003 | 85 | 145 | 1.7 | 6.1 | 0.00 | 0.01 | 0.01 | 70 | 996.6 |
| 20260905005003 | 86 | 119 | 1.7 | 4.3 | 0.00 | 0.01 | 0.01 | 69 | 996.7 |
| 20260905004502 | 86 | 116 | 0.9 | 6.1 | 0.00 | 0.01 | 0.01 | 69 | 996.6 |
| 20260905003003 | 86 | 180 | 4.3 | 7.8 | 0.00 | 0.01 | 0.01 | 68 | 996.4 |
| 20260905002503 | 87 | 167 | 2.6 | 7.8 | 0.00 | 0.01 | 0.01 | 67 | 996.3 |
| 20260905002003 | 87 | 104 | 1.7 | 7.0 | 0.00 | 0.01 | 0.01 | 66 | 996.3 |
| 20260905001503 | 87 | 153 | 4.3 | 8.7 | 0.00 | 0.01 | 0.01 | 65 | 996.2 |
| 20260905001003 | 88 | 202 | 5.2 | 8.7 | 0.00 | 0.01 | 0.01 | 63 | 996.1 |
| 20260905000503 | 88 | 191 | 2.6 | 8.7 | 0.00 | 0.01 | 0.01 | 63 | 996.1 |
| 20260905000002 | 88 | 193 | 4.3 | 8.7 | 0.00 | 0.01 | 0.01 | 62 | 996.2 |
| 20260904235502 | 89 | 119 | 1.7 | 5.2 | 0.00 | 0.01 | 0.01 | 62 | 996.0 |
| 20260904235003 | 89 | 192 | 2.6 | 7.0 | 0.00 | 0.01 | 0.01 | 61 | 995.9 |
| 20260904234503 | 90 | 153 | 3.5 | 7.0 | 0.00 | 0.01 | 0.01 | 60 | 995.9 |
| 20260904234003 | 90 | 235 | 3.5 | 7.0 | 0.00 | 0.01 | 0.01 | 60 | 995.9 |
| 20260904233503 | 91 | 333 | 1.7 | 12.2 | 0.00 | 0.01 | 0.01 | 59 | 995.7 |
| 20260904233003 | 93 | 196 | 3.5 | 7.8 | 0.00 | 0.01 | 0.01 | 51 | 995.8 |
| 20260904232502 | 93 | 182 | 3.5 | 8.7 | 0.00 | 0.01 | 0.01 | 44 | 995.7 |
| 20260904232003 | 94 | 201 | 2.6 | 5.2 | 0.00 | 0.01 | 0.01 | 44 | 995.8 |
| 20260904231503 | 94 | 202 | 4.3 | 7.0 | 0.00 | 0.01 | 0.01 | 45 | 995.8 |
| 20260904231003 | 94 | 193 | 2.6 | 5.2 | 0.00 | 0.01 | 0.01 | 45 | 995.9 |
| 20260904230503 | 94 | 163 | 2.6 | 6.1 | 0.00 | 0.01 | 0.01 | 45 | 995.8 |
| 20260904230003 | 94 | 196 | 3.5 | 6.1 | 0.00 | 0.01 | 0.01 | 45 | 995.9 |
| 20260904225503 | 94 | 16 | 4.3 | 6.1 | 0.00 | 0.01 | 0.01 | 44 | 995.9 |
| 20260904225002 | 94 | 137 | 2.6 | 5.2 | 0.00 | 0.01 | 0.01 | 43 | 995.8 |
| 20260904224502 | 94 | 230 | 2.6 | 5.2 | 0.00 | 0.01 | 0.01 | 42 | 995.8 |
| 20260904224003 | 93 | 151 | 1.7 | 7.0 | 0.00 | 0.01 | 0.01 | 42 | 996.0 |
| 20260904223503 | 94 | 217 | 4.3 | 7.8 | 0.00 | 0.01 | 0.01 | 42 | 996.0 |
| 20260904223003 | 94 | 173 | 2.6 | 5.2 | 0.00 | 0.01 | 0.01 | 42 | 995.9 |
| 20260904222503 | 95 | 191 | 2.6 | 4.3 | 0.00 | 0.01 | 0.01 | 43 | 996.0 |
| 20260904222003 | 95 | 178 | 1.7 | 4.3 | 0.00 | 0.01 | 0.01 | 42 | 996.0 |
| 20260904221003 | 94 | 200 | 3.5 | 6.1 | 0.00 | 0.01 | 0.01 | 42 | 996.0 |
| 20260904220503 | 94 | 174 | 2.6 | 5.2 | 0.00 | 0.01 | 0.01 | 43 | 996.1 |
| 20260904220003 | 94 | 177 | 1.7 | 7.0 | 0.00 | 0.01 | 0.01 | 42 | 996.3 |
| 20260904215503 | 93 | 178 | 5.2 | 7.8 | 0.00 | 0.01 | 0.01 | 42 | 996.2 |
| 20260904215003 | 94 | 180 | 6.1 | 10.4 | 0.00 | 0.01 | 0.01 | 41 | 996.7 |
| 20260904214503 | 94 | 205 | 4.3 | 8.7 | 0.00 | 0.01 | 0.01 | 41 | 996.4 |
| 20260904214003 | 95 | 237 | 2.6 | 7.0 | 0.00 | 0.01 | 0.01 | 41 | 996.3 |
| 20260904213503 | 95 | 194 | 2.6 | 4.3 | 0.00 | 0.01 | 0.01 | 41 | 996.5 |
| 20260904213003 | 94 | 126 | 2.6 | 8.7 | 0.00 | 0.01 | 0.01 | 41 | 996.6 |
| 20260904212003 | 94 | 167 | 5.2 | 7.8 | 0.00 | 0.01 | 0.01 | 41 | 996.8 |
| 20260904211503 | 94 | 174 | 4.3 | 7.8 | 0.00 | 0.01 | 0.01 | 42 | 996.8 |
| 20260904211003 | 94 | 169 | 2.6 | 8.7 | 0.00 | 0.01 | 0.01 | 41 | 996.9 |
| 20260904210503 | 93 | 190 | 5.2 | 8.7 | 0.00 | 0.01 | 0.01 | 44 | 997.0 |
| 20260904210003 | 93 | 166 | 3.5 | 11.3 | 0.00 | 0.01 | 0.01 | 44 | 996.8 |
| 20260904205503 | 94 | 165 | 3.5 | 7.8 | 0.00 | 0.01 | 0.01 | 44 | 996.9 |
| 20260904205004 | 93 | 176 | 3.5 | 7.8 | 0.00 | 0.01 | 0.01 | 45 | 996.9 |
| 20260904204503 | 94 | 156 | 3.5 | 10.4 | 0.00 | 0.01 | 0.01 | 43 | 997.1 |
| 20260904204003 | 94 | 211 | 2.6 | 10.4 | 0.00 | 0.01 | 0.01 | 46 | 997.1 |
| 20260904203004 | 94 | 210 | 2.6 | 7.0 | 0.00 | 0.01 | 0.01 | 47 | 997.0 |
| 20260904202003 | 95 | 181 | 2.6 | 6.1 | 0.00 | 0.01 | 0.01 | 49 | 997.2 |
| 20260904201503 | 95 | 209 | 2.6 | 6.1 | 0.00 | 0.01 | 0.01 | 50 | 997.1 |
| 20260904200503 | 93 | 163 | 2.6 | 7.0 | 0.00 | 0.01 | 0.01 | 54 | 997.3 |
| 20260904200003 | 94 | 168 | 3.5 | 7.0 | 0.00 | 0.01 | 0.01 | 54 | 997.5 |
| 20260904195003 | 94 | 184 | 5.2 | 7.8 | 0.00 | 0.01 | 0.01 | 57 | 997.6 |
| 20260904194503 | 94 | 146 | 1.7 | 5.2 | 0.00 | 0.01 | 0.01 | 55 | 997.6 |
| 20260904193503 | 92 | 117 | 0.9 | 7.0 | 0.00 | 0.01 | 0.01 | 54 | 997.6 |
| 20260904193003 | 92 | 159 | 3.5 | 7.0 | 0.00 | 0.01 | 0.01 | 57 | 997.7 |
| 20260904192504 | 93 | 154 | 2.6 | 6.1 | 0.00 | 0.01 | 0.01 | 55 | 997.8 |
| 20260904191503 | 92 | 174 | 4.3 | 7.8 | 0.00 | 0.01 | 0.01 | 56 | 997.9 |
| 20260904191003 | 91 | 138 | 4.3 | 7.8 | 0.00 | 0.01 | 0.01 | 57 | 998.2 |
| 20260904190503 | 91 | 165 | 6.1 | 7.8 | 0.00 | 0.01 | 0.01 | 57 | 998.1 |
| 20260904190003 | 92 | 195 | 4.3 | 7.8 | 0.00 | 0.01 | 0.01 | 58 | 998.2 |
| 20260904185503 | 92 | 114 | 0.9 | 7.8 | 0.00 | 0.01 | 0.01 | 59 | 998.1 |
| 20260904185003 | 93 | 256 | 6.1 | 8.7 | 0.00 | 0.01 | 0.01 | 57 | 998.3 |
| 20260904184503 | 94 | 331 | 2.6 | 6.1 | 0.00 | 0.01 | 0.01 | 55 | 998.2 |
| 20260904184004 | 93 | 214 | 6.1 | 13.9 | 0.00 | 0.01 | 0.01 | 57 | 998.2 |
| 20260904183503 | 93 | 177 | 1.7 | 7.0 | 0.00 | 0.01 | 0.01 | 60 | 998.4 |
| 20260904183003 | 92 | 118 | 3.5 | 7.8 | 0.00 | 0.01 | 0.01 | 60 | 998.4 |
| 20260904182502 | 92 | 137 | 2.6 | 7.8 | 0.00 | 0.01 | 0.01 | 60 | 998.3 |
| 20260904182003 | 92 | 86 | 3.5 | 12.2 | 0.00 | 0.01 | 0.01 | 61 | 998.3 |
| 20260904181503 | 91 | 151 | 4.3 | 7.0 | 0.00 | 0.01 | 0.01 | 61 | 998.4 |
| 20260904181003 | 92 | 75 | 4.3 | 7.0 | 0.00 | 0.01 | 0.01 | 60 | 998.2 |
| 20260904180503 | 92 | 183 | 3.5 | 8.7 | 0.00 | 0.01 | 0.01 | 61 | 998.4 |
| 20260904180003 | 91 | 171 | 3.5 | 10.4 | 0.00 | 0.01 | 0.01 | 58 | 998.4 |
| 20260904175003 | 90 | 174 | 3.5 | 10.4 | 0.00 | 0.01 | 0.01 | 60 | 998.4 |
| 20260904174502 | 91 | 191 | 2.6 | 5.2 | 0.00 | 0.01 | 0.01 | 60 | 998.7 |
| 20260904174003 | 92 | 259 | 1.7 | 4.3 | 0.00 | 0.01 | 0.01 | 57 | 998.6 |
| 20260904173503 | 91 | 175 | 1.7 | 7.8 | 0.00 | 0.01 | 0.01 | 58 | 998.8 |
| 20260904173003 | 91 | 231 | 2.6 | 6.1 | 0.00 | 0.01 | 0.01 | 58 | 998.7 |
| 20260904172503 | 91 | 160 | 4.3 | 7.0 | 0.00 | 0.01 | 0.01 | 60 | 998.8 |
| 20260904172003 | 90 | 198 | 4.3 | 8.7 | 0.00 | 0.01 | 0.01 | 61 | 999.0 |
| 20260904171003 | 91 | 185 | 5.2 | 7.0 | 0.00 | 0.01 | 0.01 | 61 | 999.0 |
| 20260904170502 | 90 | 181 | 2.6 | 6.1 | 0.00 | 0.01 | 0.01 | 61 | 998.8 |
| 20260904170003 | 89 | 163 | 1.7 | 7.0 | 0.00 | 0.01 | 0.01 | 64 | 998.9 |
| 20260904165503 | 90 | 268 | 4.3 | 6.1 | 0.00 | 0.01 | 0.01 | 62 | 999.2 |
| 20260904165003 | 89 | 155 | 3.5 | 6.1 | 0.00 | 0.01 | 0.01 | 62 | 999.0 |
| 20260904164003 | 89 | 236 | 1.7 | 7.0 | 0.00 | 0.01 | 0.01 | 66 | 998.8 |
| 20260904163503 | 89 | 194 | 1.7 | 6.1 | 0.00 | 0.01 | 0.01 | 68 | 998.8 |
| 20260904162003 | 87 | 319 | 2.6 | 7.0 | 0.00 | 0.01 | 0.01 | 72 | 998.9 |
| 20260904161503 | 87 | 218 | 3.5 | 7.0 | 0.00 | 0.01 | 0.01 | 73 | 999.0 |
| 20260904161003 | 87 | 261 | 2.6 | 7.0 | 0.00 | 0.01 | 0.01 | 73 | 998.9 |
| 20260904160503 | 86 | 213 | 3.5 | 6.1 | 0.00 | 0.01 | 0.01 | 74 | 999.0 |
| 20260904160003 | 86 | 184 | 2.6 | 7.0 | 0.00 | 0.01 | 0.01 | 75 | 999.0 |
| 20260904155503 | 85 | 282 | 3.5 | 7.0 | 0.00 | 0.01 | 0.01 | 76 | 999.0 |
| 20260904154503 | 85 | 250 | 2.6 | 6.1 | 0.00 | 0.01 | 0.01 | 77 | 998.9 |
| 20260904154003 | 86 | 166 | 2.6 | 5.2 | 0.00 | 0.01 | 0.01 | 77 | 998.9 |
| 20260904153503 | 85 | 259 | 1.7 | 6.1 | 0.00 | 0.01 | 0.01 | 79 | 998.9 |
| 20260904153003 | 84 | 270 | 2.6 | 4.3 | 0.00 | 0.01 | 0.01 | 81 | 999.0 |
| 20260904152503 | 83 | 2 | 2.6 | 7.0 | 0.00 | 0.01 | 0.01 | 83 | 998.9 |
| 20260904152003 | 83 | 272 | 3.5 | 7.0 | 0.00 | 0.01 | 0.01 | 84 | 998.9 |
| 20260904151503 | 83 | 286 | 1.7 | 4.3 | 0.00 | 0.01 | 0.01 | 85 | 998.9 |
| 20260904151003 | 82 | 100 | 1.7 | 7.0 | 0.00 | 0.01 | 0.01 | 86 | 998.9 |
| 20260904150503 | 82 | 319 | 3.5 | 7.0 | 0.00 | 0.01 | 0.01 | 86 | 998.8 |
| 20260904150003 | 81 | 262 | 2.6 | 6.1 | 0.00 | 0.01 | 0.01 | 87 | 998.6 |
| 20260904145004 | 80 | 255 | 2.6 | 7.0 | 0.00 | 0.01 | 0.01 | 90 | 998.6 |
| 20260904144502 | 80 | 245 | 5.2 | 7.8 | 0.00 | 0.01 | 0.01 | 90 | 998.5 |
| 20260904144003 | 79 | 268 | 4.3 | 8.7 | 0.00 | 0.01 | 0.01 | 91 | 998.7 |
| 20260904143503 | 79 | 218 | 2.6 | 5.2 | 0.00 | 0.01 | 0.01 | 92 | 998.6 |
| 20260904143003 | 79 | 289 | 3.5 | 7.8 | 0.00 | 0.01 | 0.01 | 93 | 998.6 |
| 20260904142503 | 79 | 209 | 3.5 | 6.1 | 0.00 | 0.01 | 0.01 | 93 | 998.6 |
| 20260904142004 | 79 | 238 | 2.6 | 6.1 | 0.00 | 0.01 | 0.01 | 93 | 998.5 |
| 20260904141503 | 79 | 271 | 2.6 | 7.0 | 0.00 | 0.01 | 0.01 | 94 | 998.6 |
| 20260904141003 | 78 | 270 | 3.5 | 7.0 | 0.00 | 0.01 | 0.01 | 94 | 998.6 |
| 20260904140503 | 78 | 190 | 1.7 | 6.1 | 0.00 | 0.01 | 0.01 | 95 | 998.5 |
| 20260904135503 | 78 | 258 | 2.6 | 5.2 | 0.01 | 0.01 | 0.01 | 95 | 998.5 |
| 20260904135003 | 78 | 261 | 2.6 | 5.2 | 0.01 | 0.01 | 0.01 | 95 | 998.5 |
| 20260904134503 | 78 | 252 | 2.6 | 5.2 | 0.01 | 0.01 | 0.01 | 95 | 998.5 |
| 20260904134003 | 78 | 180 | 1.7 | 2.6 | 0.01 | 0.01 | 0.01 | 95 | 998.5 |
| 20260904133003 | 78 | 262 | 1.7 | 5.2 | 0.01 | 0.01 | 0.01 | 95 | 998.4 |
| 20260904132503 | 78 | 219 | 2.6 | 4.3 | 0.01 | 0.01 | 0.01 | 95 | 998.4 |
| 20260904132003 | 78 | 238 | 1.7 | 2.6 | 0.01 | 0.01 | 0.01 | 95 | 998.6 |
| 20260904131503 | 78 | 162 | 0.9 | 1.7 | 0.01 | 0.01 | 0.01 | 95 | 998.8 |
| 20260904131002 | 78 | 141 | 0.9 | 1.7 | 0.01 | 0.01 | 0.01 | 94 | 998.5 |
| 20260904130503 | 78 | 172 | 0.9 | 2.6 | 0.01 | 0.01 | 0.01 | 94 | 998.7 |
| 20260904130003 | 78 | 151 | 1.7 | 4.3 | 0.01 | 0.01 | 0.01 | 94 | 998.5 |
| 20260904125504 | 78 | 174 | 2.6 | 4.3 | 0.00 | 0.00 | 0.00 | 93 | 998.6 |
| 20260904124502 | 78 | 151 | 0.9 | 4.3 | 0.00 | 0.00 | 0.00 | 92 | 998.7 |
| 20260904123003 | 79 | 129 | 0.9 | 1.7 | 0.00 | 0.00 | 0.00 | 92 | 998.5 |
| 20260904122003 | 79 | 148 | 1.7 | 2.6 | 0.00 | 0.00 | 0.00 | 92 | 998.4 |
| 20260904121503 | 79 | 188 | 1.7 | 2.6 | 0.00 | 0.00 | 0.00 | 91 | 998.2 |
| 20260904121003 | 79 | 117 | 0.9 | 2.6 | 0.00 | 0.00 | 0.00 | 91 | 998.1 |
| 20260904120503 | 79 | 179 | 2.6 | 2.6 | 0.00 | 0.00 | 0.00 | 91 | 998.0 |
| 20260904120003 | 79 | 144 | 4.3 | 6.1 | 0.00 | 0.00 | 0.00 | 91 | 997.9 |
| 20260904115502 | 78 | 161 | 2.6 | 7.8 | 0.00 | 0.00 | 0.00 | 92 | 997.8 |
| 20260904115004 | 78 | 189 | 2.6 | 6.1 | 0.00 | 0.00 | 0.00 | 92 | 997.7 |
| 20260904114003 | 78 | 183 | 4.3 | 6.1 | 0.00 | 0.00 | 0.00 | 92 | 997.5 |
| 20260904113503 | 78 | 162 | 2.6 | 5.2 | 0.00 | 0.00 | 0.00 | 92 | 997.4 |
| 20260904113003 | 78 | 155 | 2.6 | 4.3 | 0.00 | 0.00 | 0.00 | 92 | 997.3 |
| 20260904112002 | 78 | 164 | 3.5 | 5.2 | 0.00 | 0.00 | 0.00 | 92 | 997.2 |
| 20260904111503 | 78 | 165 | 1.7 | 5.2 | 0.00 | 0.00 | 0.00 | 91 | 997.2 |
| 20260904111003 | 78 | 194 | 4.3 | 6.1 | 0.00 | 0.00 | 0.00 | 91 | 997.1 |
| 20260904110503 | 78 | 179 | 5.2 | 7.0 | 0.00 | 0.00 | 0.00 | 91 | 997.1 |
| 20260904110003 | 78 | 204 | 4.3 | 7.0 | 0.00 | 0.00 | 0.00 | 91 | 997.0 |
| 20260904105503 | 78 | 167 | 4.3 | 6.1 | 0.00 | 0.00 | 0.00 | 91 | 997.1 |
| 20260904105002 | 78 | 166 | 3.5 | 7.8 | 0.00 | 0.00 | 0.00 | 91 | 997.0 |
| 20260904104502 | 78 | 165 | 4.3 | 10.4 | 0.00 | 0.00 | 0.00 | 91 | 997.2 |
| 20260904104003 | 78 | 169 | 5.2 | 6.1 | 0.00 | 0.00 | 0.00 | 91 | 996.9 |
| 20260904103503 | 79 | 200 | 3.5 | 7.8 | 0.00 | 0.00 | 0.00 | 91 | 997.0 |
| 20260904103003 | 79 | 153 | 4.3 | 6.1 | 0.00 | 0.00 | 0.00 | 91 | 997.0 |
| 20260904102503 | 79 | 171 | 2.6 | 4.3 | 0.00 | 0.00 | 0.00 | 90 | 997.0 |
| 20260904102003 | 79 | 174 | 2.6 | 7.0 | 0.00 | 0.00 | 0.00 | 90 | 996.9 |
| 20260904101003 | 79 | 180 | 2.6 | 6.1 | 0.00 | 0.00 | 0.00 | 90 | 996.8 |
| 20260904100503 | 79 | 219 | 3.5 | 6.1 | 0.00 | 0.00 | 0.00 | 89 | 996.8 |
| 20260904100003 | 79 | 164 | 3.5 | 5.2 | 0.00 | 0.00 | 0.00 | 89 | 996.8 |
| 20260904095503 | 79 | 146 | 2.6 | 6.1 | 0.00 | 0.00 | 0.00 | 89 | 996.8 |
| 20260904095003 | 79 | 179 | 2.6 | 5.2 | 0.00 | 0.00 | 0.00 | 89 | 996.7 |
| 20260904094503 | 79 | 161 | 2.6 | 6.1 | 0.00 | 0.00 | 0.00 | 89 | 996.7 |
| 20260904094003 | 79 | 199 | 2.6 | 4.3 | 0.00 | 0.00 | 0.00 | 89 | 996.6 |
| 20260904093503 | 79 | 174 | 2.6 | 4.3 | 0.00 | 0.00 | 0.00 | 89 | 996.6 |
| 20260904093003 | 79 | 145 | 2.6 | 5.2 | 0.00 | 0.00 | 0.00 | 88 | 996.5 |
| 20260904092502 | 79 | 151 | 3.5 | 5.2 | 0.00 | 0.00 | 0.00 | 88 | 996.6 |
| 20260904092002 | 79 | 181 | 2.6 | 6.1 | 0.00 | 0.00 | 0.00 | 88 | 996.7 |